Home > Weather > Lahr > Past weeks

Flag for Germany Past Weather in Lahr, Baden-Württemberg, Germany — Yesterday and Last 2 Weeks

Now
69 °F

Partly sunny.


Feels Like: 69 °F
Forecast: 49 / 71 °F
Wind: 2 mph from Northeast

Location: Lahr

Current Time: Jun 26, 2016 at 7:29:32 PM

Latest Report: Jun 26, 2016 at 6:00 PM


Visibility: 47 mi

Pressure: 30.07 "Hg

Humidity: 57%

Dew Point: 53 °F

Location of LahrLocation

Past Weather in Lahr — Graph

°F

Lahr Temperature Yesterday

Maximum temperature yesterday: 76 °F (at 1:00 PM)
Minimum temperature yesterday: 62 °F (at 10:00 PM)
Average temperature yesterday: 69 °F

High & Low Weather Summary for the Past Weeks

 TemperatureHumidityPressure
High92 °F (Jun 23, 6:00 PM)99% (Jun 20, 3:00 AM)30.28 "Hg (Jun 20, 3:00 AM)
Low49 °F (Jun 20, 6:00 AM)40% (Jun 24, 1:00 PM)29.58 "Hg (Jun 15, 6:00 AM)
Average65 °F78%29.94 "Hg
* Reported Jun 11 6:00 PM — Jun 26 6:00 PM, Lahr, Weather by CustomWeather, © 2016

Note: Actual official high and low records may vary slightly from our data, if they occured in-between our weather recording intervals... More about our weather records

Advertising

Lahr Weather History for the Previous 24 Hours

Scroll right to see more
 ConditionsComfort  
Time TempWeatherWind HumidityBarometerVisibility
6:00 PM
Sun, Jun 26
69 °FPartly sunny.2 mph57%30.07 "Hg47 mi
4:00 PM69 °FPartly sunny.3 mph57%30.08 "Hg43 mi
3:00 PM69 °FPartly sunny.2 mph57%30.08 "Hg47 mi
2:00 PMN/APassing clouds.9 mphN/AN/A2 mi
1:00 PM65 °FLight rain. Overcast.3 mph71%30.11 "Hg43 mi
12:00 PM70 °FPartly sunny.2 mph52%30.09 "Hg37 mi
10:00 AM66 °FPassing clouds.2 mph66%30.11 "Hg31 mi
9:00 AM63 °FPassing clouds.3 mph77%30.11 "Hg31 mi
7:00 AM57 °FPassing clouds.2 mph90%30.11 "Hg31 mi
6:00 AM55 °FScattered clouds.2 mph96%30.11 "Hg37 mi
4:00 AM54 °FClear.No wind98%30.10 "Hg10 mi
3:00 AM55 °FClear.1 mph96%30.10 "Hg9 mi
1:00 AM57 °FClear.1 mph94%30.12 "Hg14 mi
12:00 AM59 °FClear.2 mph92%30.11 "Hg11 mi
10:00 PM
Sat, Jun 25
62 °FOvercast.3 mph85%30.07 "Hg22 mi
9:00 PM64 °FSprinkles. Overcast.5 mph81%30.05 "Hg22 mi
7:00 PM69 °FOvercast.2 mph76%29.99 "Hg25 mi
Weather by CustomWeather, © 2016

See weather overviewHow to use our weather pages